Regional Weather Roundup
Issued by NWS

Home | Current Version | Previous Version | Graphics & Text | Print | Product List | Glossary On
Versions: 1 2 3 4 5 6 7 8 9 10 11 12 13 14 15 16 17 18 19 20 21 22 23 24 25 26 27 28
000
ASUS45 KSLC 200110
RWRUT

UTAH REGIONAL WEATHER ROUNDUP
NATIONAL WEATHER SERVICE SALT LAKE CITY UT
600 PM MST MON FEB 19 2018

UTZ001>011-023>025-200200-

NORTHERN UTAH

CITY           SKY/WX    TMP DP  RH WIND       PRES   REMARKS
BRIGHAM CITY   CLOUDY    26  15  61 NW8       29.68R WCI  18
HILL AFB       CLOUDY    22  13  68 N7        29.66R WCI  14
LOGAN          CLOUDY    26  12  55 N9        29.66R WCI  17
OGDEN          CLOUDY    25  13  60 N7        29.66R WCI  17
SALT LAKE CITY CLOUDY    29  18  63 N14       29.68R WCI  18
TOOELE VALLEY  LGT SNOW  23  23 100 NW8       29.70R WCI  14
WENDOVER       MOCLDY    27   9  46 NW14G20   29.72R WCI  16
HEBER CITY       N/A     21  12  68 N15G21    29.56R WCI   8
WEST JORDAN    CLOUDY    23  20  86 N9        29.67R WCI  13

$$

UTZ011>015-024>027-200200-

CENTRAL/NORTHEAST UTAH

CITY           SKY/WX    TMP DP  RH WIND       PRES   REMARKS
PROVO AIRPORT  FLURRIES  24  17  74 NW21      29.65R WCI   9
MOAB/CANYONLAN CLOUDY   N/A N/A N/A W8        29.42R
DELTA          MOCLDY    21  18  86 N9        29.67R WCI  11
PRICE          MOCLDY    25   6  44 NW18G28   29.45R WCI  11
ROOSEVELT      MOCLDY    23  14  68 E8        29.52R WCI  14
VERNAL         LGT SNOW  15   9  76 E13G21    29.52R WCI   1

$$

UTZ013>016-019>022-027-200200-

SOUTHERN UTAH

CITY           SKY/WX    TMP DP  RH WIND       PRES   REMARKS
BRYCE CANYON   CLOUDY    18  10  71 W12       29.52R WCI   5
CEDAR CITY     LGT SNOW  21  19  92 N9        29.62R FOG     WCI  11
MILFORD        LGT SNOW  22  19  89 N7        29.66R FOG     WCI  13
ST GEORGE      CLOUDY    43  -4  14 SW16      29.67R
HANKSVILLE     CLOUDY    36   7  30 NW14      29.53R WCI  27
BLANDING         N/A     32  16  52 SW17G23   29.61R WCI  20

$$

REGIONAL REPORTS     COLORADO/ARIZONA

CITY           SKY/WX    TMP DP  RH WIND       PRES   REMARKS
CRAIG, CO      LGT SNOW   6   1  80 W8        29.55F VSB 1   WCI  -7
GRAND JUNCTION CLOUDY    35  25  66 NW7       29.42F WCI  29
RIFLE, CO      CLOUDY    25  21  85 VRB5      29.45R WCI  19
MONTROSE, CO   LGT SNOW  29  27  92 NW3       29.54R FOG
CORTEZ, CO     SNOW      27  26  96 W9        29.60R VSB 1/4 WCI  18
COLORADO CITY    N/A     36   3  25 W13       29.66R WCI  27
PAGE, AZ       CLOUDY    36  12  37 SW10      29.61R WCI  28
GRAND CANYON   CLOUDY    21  17  84 W10G24    29.63R WCI  10
KINGMAN, AZ    CLOUDY    39  15  37 W15G22    29.76R WCI  31
FLAGSTAFF, AZ  MOCLDY    22  12  65 W14G23    29.60R WCI   9

$$

REGIONAL REPORTS    NEVADA/IDAHO/WYOMING

CITY           SKY/WX    TMP DP  RH WIND       PRES   REMARKS
LAS VEGAS, NV  PTCLDY    48   0  13 NW14      29.75R
ELY, NY        CLOUDY    20   9  62 NE9       29.66R WCI   9
ELKO, NV       CLOUDY    22  13  68 SW13      29.73R WCI  10
POCATELLO, ID  MOCLDY    24  12  60 S5        29.67R WCI  18
BURLEY, ID     CLOUDY    24  14  65 W18G25    29.69R WCI  10
EVANSTON, WY   CLOUDY    11   9  92 SW3       29.52R
ROCK SPRINGS,  LGT SNOW  -1  -9  68 E13       29.59R WCI -19

$$




USA.gov is the U.S. government's official web portal to all federal, state and local government web resources and services.